This is the latest recevied weather packets stored in our database for station/object K6CED. If no packets are shown the sender has not sent any weather packets the latest 10 day(s).
| Time | Temp. | Humidity | Pressure | Rain* | Wind** | Luminosity | Snow |
|---|---|---|---|---|---|---|---|
| 1787878339 | 36.11° C | 44% | 1012.4 hPa | 0 mm | - | 136 W/m² | - |
| 1787878034 | 35.56° C | 45% | 1012.7 hPa | 0 mm | - | 146 W/m² | - |
| 1787877730 | 36.11° C | 44% | 1012.7 hPa | 0 mm | - | 147 W/m² | - |
| 1787877425 | 35.56° C | 45% | 1012.6 hPa | 0 mm | - | 174 W/m² | - |
| 1787877122 | 35.56° C | 46% | 1012.7 hPa | 0 mm | - | 191 W/m² | - |
| 1787876820 | 35.56° C | 45% | 1012.7 hPa | 0 mm | - | 205 W/m² | - |
| 1787876515 | 35.56° C | 46% | 1012.7 hPa | 0 mm | - | 216 W/m² | - |
| 1787876209 | 35° C | 46% | 1012.9 hPa | 0 mm | - | 236 W/m² | - |
| 1787875904 | 35° C | 47% | 1012.9 hPa | 0 mm | - | 258 W/m² | - |
| 1787875603 | 35° C | 47% | 1012.7 hPa | 0 mm | - | 280 W/m² | - |
| 1787875298 | 35° C | 47% | 1012.8 hPa | 0 mm | - | 301 W/m² | - |
| 1787874996 | 34.44° C | 48% | 1012.8 hPa | 0 mm | - | 318 W/m² | - |
| 1787874692 | 34.44° C | 47% | 1013.1 hPa | 0 mm | - | 323 W/m² | - |
| 1787874390 | 33.89° C | 49% | 1013 hPa | 0 mm | - | 330 W/m² | - |
| 1787874085 | 32.78° C | 50% | 1013 hPa | 0 mm | - | 296 W/m² | - |
| 1787873785 | 32.22° C | 52% | 1013.1 hPa | 0 mm | - | 223 W/m² | - |
| 1787873480 | 32.78° C | 51% | 1013.1 hPa | 0 mm | - | 286 W/m² | - |
| 1787873175 | 32.78° C | 50% | 1013.2 hPa | 0 mm | - | 265 W/m² | - |
| 1787872873 | 32.78° C | 50% | 1013.4 hPa | 0 mm | - | 339 W/m² | - |
| 1787872569 | 32.22° C | 51% | 1013.3 hPa | 0 mm | - | 318 W/m² | - |
| 1787872264 | 31.67° C | 52% | 1013.2 hPa | 0 mm | - | 235 W/m² | - |
| 1787871963 | 31.67° C | 52% | 1013.5 hPa | 0 mm | - | 231 W/m² | - |
| 1787871659 | 31.67° C | 52% | 1013.6 hPa | 0 mm | - | 237 W/m² | - |
| 1787871349 | 31.67° C | 51% | 1013.5 hPa | 0 mm | - | 244 W/m² | - |
| 1787871044 | 31.11° C | 52% | 1013.7 hPa | 0 mm | - | 246 W/m² | - |
* Rain latest hour (hover to see other rain measurements)
** Current wind speed in m/s (hover to see current wind gust speed)